Lid_Strength_Index
3 3 4 4 3 3 3 3 3 2 2 2 2 2 2 2 3 2 5 3 2 -3 -1 3 1 2 2 4 3 4 9 11 9 9 8 6 7 4 4 5 4 4 4 3 2
4 3 4 4 3 3 3 3 3 2 2 2 2 2 2 2 3 4 -1 -2 -4 -3 4 5 6 6 7 6 6 6 9 8 6 6 7 6 6 5 6 6 5 5 3 3 2
4 4 4 4 4 4 4 3 3 2 2 2 2 2 2 2 4 4 -4 -4 -4 -2 3 4 5 7 8 7 6 7 8 6 5 5 5 6 6 4 6 7 6 6 5 3 3
4 5 4 4 4 4 4 3 3 3 3 3 2 2 2 2 8 3 -4 -5 -4 1 4 6 6 7 8 8 6 8 5 5 5 5 5 6 5 6 5 5 4 4 3 3 4
4 5 5 4 4 4 4 3 3 3 3 3 2 1 3 5 4 1 -3 -2 -0 3 6 6 6 6 8 7 6 6 6 5 4 5 5 5 6 6 6 4 4 3 3 4 4
5 5 5 5 4 4 4 4 4 3 3 3 2 1 3 7 2 2 1 2 3 4 4 4 5 4 7 7 7 6 5 5 5 5 5 5 5 5 5 4 4 4 4 4 4
5 5 5 5 5 4 4 4 4 3 3 3 1 1 4 6 3 2 3 4 3 3 4 3 3 5 6 8 6 6 7 6 6 5 6 5 7 7 5 4 4 4 4 4 4
5 5 5 5 5 4 4 5 4 3 3 2 0 2 6 2 3 3 2 3 3 3 3 3 3 4 6 6 7 8 8 10 6 5 5 6 9 7 5 5 5 6 4 4 5
4 5 5 5 5 5 5 5 4 3 2 1 3 5 5 1 4 4 4 3 3 3 3 2 4 7 6 9 10 9 12 10 8 5 6 6 9 6 5 5 6 6 5 5 5
3 4 5 5 5 5 5 5 3 3 2 2 2 6 4 5 4 3 4 3 3 4 4 5 6 9 9 11 14 11 11 9 9 7 6 7 8 6 5 5 6 5 5 6 6
3 4 4 4 5 5 7 7 5 5 6 6 6 6 4 3 3 4 3 3 4 5 8 6 9 11 9 8 9 8 9 10 8 6 8 8 8 7 6 5 6 6 5 6 6
3 3 4 4 4 5 6 7 6 6 9 5 5 5 3 4 6 4 3 6 6 8 7 8 10 7 6 6 8 8 9 10 8 6 7 8 8 6 6 6 6 6 7 7 6
4 4 4 4 4 4 6 5 3 5 9 7 5 6 6 6 7 6 5 5 6 7 7 9 8 5 6 7 8 10 9 9 9 7 6 8 10 9 6 6 6 5 6 6 6
4 4 4 5 6 6 5 3 4 5 11 8 7 6 5 6 7 5 5 4 6 7 7 8 6 6 7 8 8 12 8 7 8 10 13 9 14 10 10 9 7 6 7 6 6
4 4 4 5 6 7 4 4 4 5 15 6 6 4 5 6 6 6 5 6 7 7 8 8 7 8 8 8 7 9 7 8 8 11 10 11 13 13 10 11 9 7 7 6 5
5 5 5 4 5 5 3 4 5 11 14 7 6 7 7 7 6 5 6 6 4 6 7 7 6 7 7 6 6 6 8 9 10 12 15 12 12 12 12 11 9 7 6 6 5
5 5 6 4 6 5 4 6 11 13 7 8 8 7 8 8 7 7 7 9 10 12 11 8 7 7 6 8 7 8 10 14 15 15 15 11 12 12 9 8 8 8 7 6 5
5 6 5 5 5 5 5 9 13 9 9 6 7 8 9 8 8 7 8 9 8 8 10 11 12 8 6 8 9 9 11 14 16 16 14 10 13 12 7 6 6 6 6 6 5
6 4 5 5 4 4 8 12 11 8 6 7 7 9 9 8 8 8 9 9 7 8 11 12 10 6 7 7 8 10 12 9 13 14 14 13 11 8 8 9 7 7 6 6 6
7 5 5 2 2 6 10 12 9 6 6 7 9 8 10 9 9 9 9 7 7 6 7 9 12 8 6 7 7 9 8 12 13 16 17 14 14 13 11 10 9 7 7 6 5
7 7 4 3 4 8 12 11 8 5 6 7 8 9 9 9 9 9 9 7 7 6 7 9 10 10 8 9 10 10 12 11 11 13 15 17 15 10 11 9 9 8 7 6 6
5 8 3 4 9 9 11 8 7 6 5 6 7 8 9 8 9 9 8 7 6 6 9 8 9 12 10 8 7 8 10 11 13 14 13 14 14 8 8 7 8 8 7 6 5
6 6 4 5 12 11 9 7 6 6 6 7 7 7 7 9 10 8 7 5 6 6 9 7 11 14 12 11 8 10 9 10 10 11 13 15 15 8 8 8 7 7 7 6 5
5 8 6 7 8 10 10 8 8 5 6 6 7 6 8 9 8 8 8 6 5 6 2 6 10 12 14 11 9 10 8 9 11 14 13 13 13 11 9 9 8 7 7 6 5
4 7 5 9 9 10 9 9 8 8 6 6 7 7 8 10 9 9 8 8 6 5 7 8 12 11 9 8 8 9 9 8 10 12 13 12 12 11 9 8 7 7 6 6 6
6 6 6 6 6 6 9 9 9 8 7 8 9 7 7 9 8 9 9 9 9 7 8 8 11 9 11 8 8 9 8 8 9 8 9 10 12 8 8 7 8 7 6 6 6
2 2 5 6 6 7 7 6 7 7 7 6 7 7 8 7 6 6 6 7 7 9 9 10 11 12 14 10 9 12 9 9 9 9 9 11 10 8 8 7 8 7 6 6 6